Dewpoint
32 30 27 26 25 22 21 17 15 24 30 30 27 25 24 24 24 23 22 22 22 21 21 22 22 22 22 23 23 24 26 27 29 31 35 40 45 49 49 48 48 47 47 47
29 27 28 27 26 24 22 18 17 24 29 28 25 23 22 22 21 21 21 20 19 20 19 19 20 20 21 21 22 23 24 25 27 29 31 36 40 47 46 45 49 48 47 47
28 27 26 25 25 22 21 19 18 21 24 27 23 21 20 20 19 18 19 19 18 18 18 18 18 19 19 20 21 22 23 24 25 27 29 31 34 37 37 36 40 46 47 47
27 27 26 26 24 22 21 22 23 25 23 22 25 21 19 18 16 15 15 15 16 16 16 16 16 17 18 19 21 22 22 22 23 24 26 27 29 30 31 32 34 37 38 39
28 28 27 26 24 23 24 29 25 25 24 23 24 21 20 18 16 14 13 12 12 14 14 14 15 15 17 17 19 20 22 22 23 23 23 25 26 27 28 28 29 30 32 33
30 32 29 28 29 29 29 26 26 26 25 23 22 23 21 19 16 14 12 11 11 11 12 12 13 13 14 15 16 18 19 20 21 23 22 22 23 24 25 25 26 27 28 29
27 28 30 30 28 30 30 28 25 24 24 23 23 23 17 15 14 14 12 11 10 10 10 10 9 10 10 10 12 13 16 17 19 20 22 23 22 22 23 24 25 25 26 27
25 25 29 31 29 28 29 28 25 19 20 19 21 18 15 15 12 12 11 10 9 9 7 7 6 6 7 8 8 10 12 14 15 17 20 21 21 22 22 22 23 23 24 26
23 27 28 27 29 29 28 27 28 24 22 19 16 14 13 13 12 11 10 9 9 6 5 5 4 3 4 6 7 8 9 10 12 13 16 18 19 20 21 22 22 22 22 23
26 26 27 24 30 29 28 28 25 26 20 16 17 13 12 11 11 10 9 9 8 5 3 3 3 3 3 5 7 8 9 9 11 12 13 16 16 17 17 19 18 19 21 21
19 23 16 24 19 22 26 26 26 25 24 19 13 10 12 12 12 10 8 8 6 4 3 2 2 3 4 5 6 7 8 9 9 11 11 13 15 15 15 15 16 16 18 19
16 18 16 16 18 17 17 18 20 22 20 20 20 8 11 9 8 8 8 6 5 5 5 4 4 5 6 6 6 8 8 9 9 11 11 11 13 14 13 12 14 15 16 17
14 11 12 15 17 18 19 19 21 22 22 17 13 7 10 8 8 6 6 6 7 7 7 6 6 6 6 6 7 8 8 9 9 10 10 9 9 12 10 9 13 13 14 15
19 21 18 13 16 19 17 18 18 17 11 11 6 4 3 6 6 5 5 5 2 4 5 2 -0 -2 -2 -3 -2 -1 1 3 5 7 7 6 7 9 7 8 10 10 11 12
22 16 18 11 12 15 15 15 14 14 8 6 2 0 -2 -4 -4 -4 -1 3 3 0 0 -1 -2 -4 -5 -6 -5 -4 -3 -2 -2 1 -1 1 3 4 4 5 5 5 5 8
13 16 16 12 6 9 10 10 11 11 9 5 2 -5 -2 -4 -2 -2 -3 1 -1 -3 -2 -2 -2 -2 -2 -4 0 3 1 2 2 0 -2 0 2 -1 1 2 4 4 4 5
12 15 12 4 6 7 6 4 7 7 5 5 6 0 2 1 4 -2 -4 -2 -3 -5 -6 -4 -4 -3 -3 -1 2 1 1 3 3 0 2 3 2 2 2 3 3 3 3 5
12 16 17 5 11 -4 1 7 6 5 4 4 2 -0 -3 -3 -4 -4 -4 -5 -10 -8 -6 -4 -5 -4 -3 -2 -2 -1 1 1 1 1 2 3 3 2 2 2 2 2 3 4
18 18 9 5 5 2 -0 1 0 -1 -2 -4 -4 -4 -4 -5 -7 -4 -4 -7 -8 -9 -7 -6 -4 -3 -3 -5 -2 -1 -1 -1 -2 -1 1 1 0 -1 -1 -2 -2 -1 -0 0
13 16 15 9 -0 -4 -4 2 0 -4 -4 -5 -5 -8 -10 -8 -10 -9 -8 -8 -8 -5 -4 -4 -2 -1 -6 -2 -1 -4 -2 -3 -4 -1 -3 -6 -5 -5 -6 -6 -5 -4 -4 -4
10 12 7 8 -3 -8 -4 -3 -2 -7 -5 -4 -6 -9 -11 -11 -9 -10 -6 -6 -4 -4 -3 -1 -2 -3 -2 -1 -2 -2 -3 -6 -6 -10 -10 -9 -10 -11 -11 -10 -9 -9 -8 -6
4 3 2 1 -4 -6 -1 -4 -5 -7 -10 -10 -11 -10 -9 -10 -9 -7 -4 -2 -1 -1 -1 -2 -3 -3 -2 -2 -3 -4 -9 -11 -11 -11 -11 -11 -12 -14 -14 -12 -11 -9 -8 -9
-3 -4 -2 -6 -6 -7 -7 -6 -11 -13 -13 -12 -12 -12 -11 -11 -7 -4 -3 -4 -2 -2 -2 -2 -3 -4 -5 -4 -5 -12 -12 -12 -12 -12 -12 -13 -13 -13 -12 -11 -9 -10 -8 -6
-7 -6 -6 -8 -7 -8 -11 -12 -13 -13 -15 -15 -14 -12 -10 -10 -7 -5 -3 -2 -3 -4 -5 -4 -5 -6 -7 -8 -12 -12 -12 -12 -12 -12 -12 -12 -11 -8 -7 -9 -9 -8 -7 -6
-5 -4 -9 -12 -12 -15 -14 -12 -11 -15 -17 -16 -14 -10 -5 -4 -4 -4 -3 -4 -5 -5 -5 -5 -7 -8 -8 -11 -12 -11 -12 -11 -12 -12 -10 -9 -9 -8 -7 -6 -7 -6 -3 1
-6 -10 -9 -7 -16 -15 -14 -14 -14 -15 -14 -11 -6 -4 -4 -3 -4 -4 -5 -5 -6 -6 -7 -8 -8 -11 -11 -11 -11 -11 -10 -11 -11 -10 -9 -8 -6 -6 -6 -5 -5 4 7 9
Lifted_Index
5 5 4 5 5 4 4 3 4 4 5 6 6 6 6 7 7 7 8 8 9 10 13 15 16 16 16 15 15 14 14 13 12 11 10 9 9 9 9 10 10 10 10 10
5 4 4 5 5 4 4 3 4 4 5 6 6 6 6 7 7 8 8 9 9 11 12 14 15 15 15 15 15 15 14 14 13 12 11 10 10 9 10 10 10 11 11 11
4 4 4 4 4 4 4 4 3 4 4 5 5 5 5 6 7 8 9 10 11 12 12 14 14 15 15 15 16 16 15 15 14 14 13 12 11 10 10 10 11 11 11 12
4 4 4 4 4 4 4 4 3 3 3 3 4 4 4 5 5 7 9 10 12 13 14 14 15 16 16 17 18 18 17 17 16 15 14 13 12 11 11 11 11 11 12 12
4 4 4 3 3 4 4 3 3 3 2 2 2 3 3 4 4 5 8 10 12 14 15 16 17 18 19 19 20 20 19 19 18 17 15 14 13 12 12 12 11 12 12 12
4 4 4 4 4 4 4 3 2 2 2 2 2 3 3 4 5 6 8 11 13 15 16 17 18 19 20 21 21 21 20 20 19 19 18 16 15 14 13 12 12 12 12 12
4 4 4 4 4 4 4 3 2 1 1 1 2 3 4 5 7 8 10 12 14 16 17 18 19 20 20 21 21 22 21 21 21 21 20 19 17 16 15 14 14 13 13 13
3 3 4 4 4 4 4 3 2 1 1 1 2 3 4 7 9 11 12 14 15 17 18 19 20 21 21 22 22 22 22 22 22 22 22 21 21 19 19 18 17 17 16 16
2 3 3 4 4 4 3 3 2 2 1 1 2 3 4 7 9 10 12 14 16 17 19 20 21 22 23 23 24 24 24 24 24 24 24 24 23 22 22 21 21 20 20 19
2 2 3 3 4 4 3 3 3 2 1 1 1 2 4 5 6 8 11 13 16 18 19 20 22 23 25 25 26 26 26 26 26 26 26 25 25 25 24 24 23 22 22 22
2 2 3 3 3 3 3 3 2 2 1 1 1 3 5 6 7 9 11 14 16 18 19 21 23 24 25 26 27 27 27 27 27 27 27 27 26 26 26 25 25 24 24 24
2 2 2 3 3 3 3 3 2 2 2 1 2 4 7 9 9 10 12 14 17 18 20 21 23 24 25 25 26 26 27 27 28 28 28 28 28 28 27 27 27 27 26 26
3 3 3 3 3 4 3 3 3 2 2 2 2 4 7 10 10 12 13 15 17 18 20 21 22 23 24 25 26 26 27 28 28 28 28 28 28 28 28 28 28 28 28 27
5 4 3 3 3 4 3 3 3 3 3 3 3 4 7 9 11 13 14 16 17 18 19 20 21 23 24 25 25 26 27 28 28 28 28 28 28 28 28 29 29 29 29 28
5 4 3 3 4 4 4 4 4 4 4 4 4 5 8 11 12 14 15 16 17 18 19 20 21 23 24 24 25 26 27 27 28 28 28 28 28 29 29 29 29 29 29 29
5 4 3 3 4 4 4 4 5 5 6 6 6 7 10 13 14 15 16 17 17 18 20 21 22 23 24 24 25 25 26 27 27 27 27 28 28 28 28 28 28 28 28 28
5 4 3 3 3 3 4 5 6 7 8 8 8 9 12 13 14 15 17 17 18 20 21 22 23 24 24 25 25 26 26 27 27 26 26 26 27 26 27 27 27 26 26 26
6 5 4 3 3 3 5 8 9 9 9 10 10 11 13 14 15 16 18 19 20 21 22 23 24 24 25 25 26 26 25 25 25 25 24 24 24 24 24 24 24 24 24 24
8 7 4 3 2 4 6 9 10 10 10 11 12 12 13 14 15 16 19 21 21 22 23 23 24 24 24 24 25 24 23 23 23 23 23 23 23 23 22 22 22 22 22 22
8 7 5 3 3 4 7 11 11 10 10 11 13 13 14 14 15 16 19 21 21 22 22 22 22 22 22 23 23 22 22 21 22 22 22 22 22 22 22 22 22 22 22 21
6 6 5 4 3 5 9 12 12 10 11 13 14 15 15 15 15 17 18 19 19 20 20 20 21 21 21 22 22 21 21 21 22 22 22 22 22 22 22 22 22 22 22 21
6 6 6 5 5 7 10 12 12 12 13 15 15 15 15 15 15 16 17 17 18 18 19 20 20 20 20 21 21 20 20 21 22 21 21 21 21 21 21 21 21 21 21 21
7 8 8 8 8 10 12 14 14 15 15 15 16 16 15 15 15 16 16 16 17 18 18 19 19 19 19 20 20 19 19 20 20 19 19 19 19 20 20 20 20 20 20 20
10 10 10 10 11 12 13 15 15 16 15 15 15 15 15 15 15 16 16 16 17 17 17 17 17 17 17 18 18 18 18 18 18 17 17 17 18 18 18 19 19 19 19 19
11 11 10 10 11 12 13 14 14 14 15 15 15 15 15 15 15 15 16 16 16 16 16 16 16 16 16 16 16 17 17 17 16 16 16 16 16 17 17 17 18 18 18 18
11 10 10 10 11 12 12 13 14 14 14 14 15 15 16 16 15 15 15 16 16 16 16 16 15 15 15 15 15 16 16 16 16 15 15 15 16 16 16 16 17 18 18 18